[[{"header":{"parameterUnit":"m.s-1","parameterCategory":1,"la1":30.2991,"la2":30.254,"lo1":-89.0895,"lo2":-89.0444,"dx":0.0017,"dy":0.0017,"nx":28,"ny":28,"refTime":"2022-12-09T15:00:00:Z","depth":0,"parameterNumber":2,"parameterNumberName":"U-component_of_WINDS"},"data":[0,0,0,0,0,0,0,0,0,0,0,0,0,0,0,0,0,0,0,0,0,0,0,0,0,0,0,0,0,0,0,0,0,0,0,0,0,0,0,0,0,0,0,0,0,0,0,0,0,0,0,0,0,0,0,0,0,0,-0.6694,-0.6695,0,-0.6783,-0.6784,-0.6785,-0.684,-0.684,-0.684,-0.684,-0.6932,-0.6934,-0.6937,0,0,0,0,0,0,0,0,0,0,0,0,0,-0.6573,-0.6575,-0.6694,-0.6695,-0.6696,-0.6783,-0.6784,-0.6785,-0.684,-0.684,-0.684,-0.6841,-0.6932,-0.6934,-0.6937,0,0,0,0,0,0,0,0,0,0,0,0,0,-0.664,-0.6576,-0.6693,-0.6734,-0.6738,-0.6782,-0.6784,-0.6786,-0.6839,-0.684,-0.684,-0.6841,-0.6931,-0.6934,-0.6937,-0.6949,0,0,-0.6947,-0.6949,0,0,0,0,0,0,0,0,-0.6636,-0.6645,-0.6727,-0.6731,-0.6736,-0.6801,-0.6775,-0.684,-0.6839,-0.6801,-0.684,-0.6841,-0.6888,-0.6895,-0.6911,-0.6953,-0.6957,-0.6948,-0.695,-0.6951,-0.6952,0,0,0,0,0,0,0,-0.6632,-0.6641,-0.6729,-0.6728,-0.6733,-0.6748,-0.6758,-0.6788,-0.6841,-0.6804,-0.6809,-0.6818,-0.6891,-0.6908,-0.6913,-0.6959,-0.6947,-0.695,-0.6952,-0.6954,-0.7018,-0.7018,0,0,0,0,0,0,-0.662,-0.6637,-0.6726,-0.6732,-0.6686,-0.675,-0.6761,-0.6779,-0.6841,-0.6851,-0.6818,-0.6821,-0.6902,-0.691,-0.6917,-0.6936,-0.6951,-0.6954,-0.6956,-0.7018,-0.7018,-0.7017,0,0,0,0,0,0,-0.6618,-0.6628,-0.6723,-0.6685,-0.6699,-0.6751,-0.6772,-0.6781,-0.6798,-0.6851,-0.6861,-0.6825,-0.6902,-0.6912,-0.6941,-0.694,-0.6955,-0.6958,-0.7018,-0.7018,-0.7018,-0.6973,0,0,0,0,0,0,-0.6614,-0.6626,-0.6631,-0.6685,-0.67,-0.6744,-0.6772,-0.6782,-0.6803,-0.6807,-0.686,-0.687,-0.6903,-0.6936,-0.6944,-0.6945,-0.6961,-0.7019,-0.7018,-0.7018,-0.6975,-0.6971,-0.6968,0,0,0,0,0,-0.6609,-0.6614,-0.6631,-0.6641,-0.6707,-0.6744,-0.6753,-0.6792,-0.6803,-0.6808,-0.6843,-0.6868,-0.6939,-0.6938,-0.6948,-0.6949,-0.7019,-0.7018,-0.7018,-0.6976,-0.6972,-0.6968,0,0,0,0,0,0,-0.6558,-0.6622,-0.6641,-0.6663,-0.6698,-0.6753,-0.6761,-0.6785,-0.6817,-0.682,-0.6867,-0.6879,-0.6903,-0.693,-0.6928,-0.6965,-0.6982,-0.6983,-0.6947,-0.6943,-0.694,-0.6933,-0.6964,0,0,0,0,0,-0.6549,-0.6574,-0.6629,-0.6643,-0.666,-0.6707,-0.6725,-0.6752,-0.679,-0.6805,-0.6842,-0.6878,-0.6909,-0.6927,-0.6958,-0.698,-0.6993,-0.6986,-0.6982,-0.6979,-0.6979,-0.6994,-0.6992,-0.7016,-0.7016,-0.7016,0,0,-0.6531,-0.657,-0.6582,-0.6634,-0.6664,-0.6689,-0.6719,-0.6744,-0.6764,-0.6809,-0.6838,-0.6867,-0.691,-0.6936,-0.6949,-0.6958,-0.6976,-0.6978,-0.6975,-0.6978,-0.6993,-0.6991,-0.6989,-0.7015,-0.7015,-0.7015,0,0,-0.6512,-0.6543,-0.6559,-0.6589,-0.6634,-0.6666,-0.667,-0.6722,-0.6743,-0.6774,-0.6809,-0.6833,-0.6884,-0.6914,-0.6936,-0.6931,-0.6956,-0.694,-0.6922,-0.6936,-0.6934,-0.6932,-0.6931,-0.693,-0.694,-0.694,-0.694,0,-0.6484,-0.6522,-0.6564,-0.6588,-0.661,-0.6653,-0.6671,-0.6698,-0.6751,-0.6766,-0.6776,-0.6843,-0.6875,-0.6909,-0.6908,-0.6924,-0.6931,-0.6933,-0.693,-0.693,-0.6929,-0.6928,-0.6928,-0.6938,-0.6938,-0.6939,-0.6939,0,-0.6487,-0.6513,-0.6521,-0.6571,-0.6595,-0.6615,-0.6661,-0.668,-0.6706,-0.6737,-0.6769,-0.681,-0.685,-0.6861,-0.6886,-0.6899,-0.6903,-0.6921,-0.6939,-0.6924,-0.6924,-0.6924,-0.6935,-0.6936,-0.6936,-0.6937,0,0,-0.6435,-0.651,-0.6512,-0.6536,-0.659,-0.6612,-0.6636,-0.6676,-0.6691,-0.6728,-0.6749,-0.6793,-0.681,-0.6835,-0.6865,-0.6877,-0.6871,-0.6894,-0.6895,-0.6888,-0.6889,-0.6875,-0.6874,-0.6888,-0.6888,-0.6889,-0.6886,0,-0.6423,-0.6466,-0.6506,-0.6535,-0.6561,-0.6603,-0.6624,-0.666,-0.669,-0.6717,-0.6752,-0.6782,-0.6803,-0.6818,-0.6832,-0.6868,-0.6872,-0.6869,-0.6909,-0.691,-0.6896,-0.6874,-0.6858,-0.6853,-0.6886,-0.6886,-0.6886,0,-0.6415,-0.6449,-0.6481,-0.6534,-0.6547,-0.6564,-0.6605,-0.663,-0.6673,-0.6695,-0.6724,-0.6755,-0.6783,-0.6798,-0.6838,-0.6836,-0.6855,-0.6875,-0.6876,-0.6881,-0.6896,-0.6878,-0.6853,-0.6852,-0.6886,-0.6886,-0.6886,0,-0.6374,-0.6429,-0.6455,-0.6475,-0.6537,-0.6549,-0.6576,-0.6619,-0.6641,-0.6678,-0.6693,-0.6732,-0.6753,-0.6783,-0.6825,-0.6832,-0.6861,-0.6879,-0.688,-0.6879,-0.6883,-0.6882,-0.6861,-0.6896,-0.6896,-0.6896,-0.6896,0,-0.6356,-0.6374,-0.6438,-0.6454,-0.6476,-0.6522,-0.6543,-0.6574,-0.6612,-0.6636,-0.6676,-0.6697,-0.6751,-0.6779,-0.6812,-0.6841,-0.685,-0.6869,-0.6878,-0.6865,-0.6863,-0.6878,-0.6879,-0.6896,-0.6896,-0.6896,-0.6896,0,-0.6314,-0.6357,-0.6389,-0.6447,-0.6462,-0.6475,-0.6526,-0.6544,-0.6577,-0.6607,-0.6617,-0.667,-0.6706,-0.6751,-0.6801,-0.6823,-0.6848,-0.6861,-0.6833,-0.6838,-0.6837,-0.6836,-0.6824,-0.6825,-0.6859,-0.6858,-0.6858,0,-0.63,-0.6314,-0.6374,-0.6393,-0.6419,-0.6448,-0.6472,-0.6519,-0.6542,-0.6593,-0.6605,-0.6644,-0.6678,-0.6733,-0.6777,-0.6816,-0.683,-0.6823,-0.6836,-0.6824,-0.6831,-0.6829,-0.6831,-0.6819,-0.6819,-0.6818,-0.6818,0,-0.6269,-0.6291,-0.6322,-0.6362,-0.6389,-0.6423,-0.6458,-0.6472,-0.6527,-0.6551,-0.6588,-0.6614,-0.6666,-0.6705,-0.675,-0.6779,-0.6808,-0.6814,-0.6816,-0.6803,-0.6787,-0.6796,-0.6824,-0.6813,-0.6814,-0.6814,-0.6814,-0.6815,-0.6241,-0.6257,-0.6302,-0.6336,-0.6368,-0.6401,-0.6421,-0.6458,-0.649,-0.6536,-0.6562,-0.6599,-0.6644,-0.6708,-0.6736,-0.6766,-0.6777,-0.678,-0.6781,-0.6781,-0.6777,-0.6783,-0.6775,-0.6775,-0.6775,-0.6775,-0.6775,0,-0.6213,-0.6245,-0.6276,-0.6325,-0.6353,-0.6378,-0.642,-0.6441,-0.6473,-0.6512,-0.6545,-0.6589,-0.6628,-0.6675,-0.6717,-0.6732,-0.6747,-0.6742,-0.6741,-0.6747,-0.6765,-0.6759,-0.6729,-0.6729,-0.6729,-0.6729,-0.6729,-0.6729,-0.6202,-0.623,-0.6257,-0.6302,-0.6334,-0.637,-0.6392,-0.6423,-0.6455,-0.6502,-0.6534,-0.6565,-0.6609,-0.6654,-0.6691,-0.6705,-0.6718,-0.6709,-0.6726,-0.6742,-0.6746,-0.6749,-0.6744,-0.6712,-0.6712,-0.6706,-0.6706,-0.6706]},{"header":{"parameterUnit":"m.s-1","parameterCategory":1,"la1":30.2991,"la2":30.254,"lo1":-89.0895,"lo2":-89.0444,"dx":0.0017,"dy":0.0017,"nx":28,"ny":28,"refTime":"2022-12-09T15:00:00:Z","depth":0,"parameterNumber":3,"parameterNumberName":"V-component_of_WINDS"},"data":[0,0,0,0,0,0,0,0,0,0,0,0,0,0,0,0,0,0,0,0,0,0,0,0,0,0,0,0,0,0,0,0,0,0,0,0,0,0,0,0,0,0,0,0,0,0,0,0,0,0,0,0,0,0,0,0,0,0,-0.3524,-0.3524,0,-0.3479,-0.3478,-0.3477,-0.3449,-0.3449,-0.3449,-0.3449,-0.34,-0.3399,-0.3397,0,0,0,0,0,0,0,0,0,0,0,0,0,-0.3584,-0.3583,-0.3524,-0.3523,-0.3523,-0.3479,-0.3478,-0.3477,-0.3449,-0.3449,-0.3449,-0.3449,-0.34,-0.3399,-0.3397,0,0,0,0,0,0,0,0,0,0,0,0,0,-0.355,-0.3583,-0.3524,-0.3504,-0.3501,-0.3479,-0.3478,-0.3477,-0.3449,-0.3449,-0.3449,-0.3448,-0.3401,-0.3399,-0.3397,-0.3391,0,0,-0.3392,-0.3391,0,0,0,0,0,0,0,0,-0.3552,-0.3548,-0.3507,-0.3505,-0.3502,-0.3469,-0.3481,-0.3448,-0.3449,-0.3469,-0.3449,-0.3448,-0.3423,-0.3419,-0.3411,-0.3389,-0.3387,-0.3392,-0.3391,-0.339,-0.3389,0,0,0,0,0,0,0,-0.3555,-0.355,-0.3506,-0.3507,-0.3504,-0.3496,-0.3491,-0.3475,-0.3448,-0.3467,-0.3465,-0.346,-0.3422,-0.3413,-0.341,-0.3386,-0.3392,-0.339,-0.3389,-0.3388,-0.3356,-0.3356,0,0,0,0,0,0,-0.3561,-0.3552,-0.3507,-0.3505,-0.3527,-0.3495,-0.3489,-0.348,-0.3448,-0.3443,-0.346,-0.3459,-0.3416,-0.3412,-0.3408,-0.3399,-0.339,-0.3388,-0.3387,-0.3356,-0.3356,-0.3356,0,0,0,0,0,0,-0.3562,-0.3557,-0.3509,-0.3528,-0.3521,-0.3494,-0.3484,-0.3479,-0.3471,-0.3443,-0.3437,-0.3457,-0.3416,-0.341,-0.3396,-0.3397,-0.3388,-0.3386,-0.3355,-0.3356,-0.3356,-0.338,0,0,0,0,0,0,-0.3564,-0.3558,-0.3555,-0.3528,-0.352,-0.3498,-0.3484,-0.3479,-0.3468,-0.3466,-0.3438,-0.3433,-0.3415,-0.3398,-0.3394,-0.3394,-0.3385,-0.3355,-0.3356,-0.3356,-0.3379,-0.3381,-0.3383,0,0,0,0,0,-0.3566,-0.3564,-0.3556,-0.355,-0.3517,-0.3498,-0.3494,-0.3474,-0.3468,-0.3466,-0.3448,-0.3434,-0.3397,-0.3397,-0.3392,-0.3391,-0.3355,-0.3355,-0.3356,-0.3378,-0.3381,-0.3383,0,0,0,0,0,0,-0.3591,-0.356,-0.355,-0.3539,-0.3522,-0.3494,-0.349,-0.3477,-0.3461,-0.3459,-0.3435,-0.3428,-0.3416,-0.3402,-0.3402,-0.3384,-0.3375,-0.3374,-0.3393,-0.3396,-0.3397,-0.3401,-0.3383,0,0,0,0,0,-0.3595,-0.3584,-0.3556,-0.3549,-0.3541,-0.3517,-0.3508,-0.3494,-0.3475,-0.3467,-0.3448,-0.3429,-0.3414,-0.3404,-0.3388,-0.3377,-0.337,-0.3374,-0.3376,-0.3378,-0.3377,-0.3371,-0.3372,-0.3357,-0.3357,-0.3357,0,0,-0.3604,-0.3585,-0.3579,-0.3553,-0.3538,-0.3526,-0.3511,-0.3498,-0.3489,-0.3465,-0.345,-0.3435,-0.3413,-0.34,-0.3394,-0.3388,-0.338,-0.3378,-0.338,-0.3379,-0.3371,-0.3373,-0.3374,-0.3358,-0.3358,-0.3358,0,0,-0.3613,-0.3598,-0.359,-0.3576,-0.3554,-0.3538,-0.3536,-0.351,-0.3499,-0.3484,-0.3466,-0.3454,-0.3427,-0.3412,-0.3401,-0.3405,-0.3392,-0.34,-0.341,-0.3404,-0.3405,-0.3406,-0.3407,-0.3408,-0.34,-0.34,-0.34,0,-0.3626,-0.3608,-0.3588,-0.3576,-0.3566,-0.3544,-0.3536,-0.3523,-0.3496,-0.3489,-0.3483,-0.345,-0.3433,-0.3416,-0.3417,-0.3409,-0.3406,-0.3403,-0.3407,-0.3407,-0.3408,-0.3409,-0.341,-0.3401,-0.3401,-0.3401,-0.3401,0,-0.3625,-0.3613,-0.3609,-0.3585,-0.3573,-0.3564,-0.3541,-0.3532,-0.3519,-0.3504,-0.3488,-0.3468,-0.3447,-0.3442,-0.3429,-0.3424,-0.3421,-0.3411,-0.3402,-0.3411,-0.3411,-0.3412,-0.3403,-0.3402,-0.3402,-0.3402,0,0,-0.3649,-0.3614,-0.3613,-0.3602,-0.3576,-0.3565,-0.3555,-0.3535,-0.3528,-0.351,-0.35,-0.3478,-0.3469,-0.3457,-0.3442,-0.3436,-0.3441,-0.3427,-0.3426,-0.3431,-0.3433,-0.3441,-0.3442,-0.3432,-0.3432,-0.3432,-0.3435,0,-0.3654,-0.3635,-0.3616,-0.3603,-0.3591,-0.3571,-0.3561,-0.3544,-0.3529,-0.3516,-0.3499,-0.3485,-0.3474,-0.3466,-0.346,-0.3442,-0.3441,-0.3441,-0.3422,-0.3421,-0.3429,-0.3442,-0.345,-0.3455,-0.3435,-0.3435,-0.3435,0,-0.3658,-0.3643,-0.3628,-0.3604,-0.3598,-0.359,-0.3571,-0.3559,-0.3539,-0.3529,-0.3515,-0.3499,-0.3486,-0.3478,-0.3459,-0.346,-0.3451,-0.3441,-0.344,-0.3438,-0.3429,-0.344,-0.3455,-0.3456,-0.3436,-0.3436,-0.3436,0,-0.3677,-0.3652,-0.3641,-0.3632,-0.3603,-0.3598,-0.3585,-0.3565,-0.3555,-0.3538,-0.3531,-0.3512,-0.3502,-0.3487,-0.3467,-0.3463,-0.3451,-0.3441,-0.3441,-0.3442,-0.344,-0.344,-0.3454,-0.3434,-0.3434,-0.3434,-0.3434,0,-0.3685,-0.3677,-0.3649,-0.3642,-0.3632,-0.3611,-0.3602,-0.3587,-0.357,-0.3559,-0.354,-0.353,-0.3504,-0.349,-0.3474,-0.3461,-0.3457,-0.3448,-0.3444,-0.345,-0.3451,-0.3443,-0.3443,-0.3434,-0.3434,-0.3434,-0.3434,0,-0.3705,-0.3685,-0.3672,-0.3646,-0.3639,-0.3633,-0.361,-0.3602,-0.3587,-0.3573,-0.3569,-0.3544,-0.3528,-0.3506,-0.3483,-0.3472,-0.3461,-0.3454,-0.3468,-0.3466,-0.3468,-0.3468,-0.3477,-0.3477,-0.3457,-0.3458,-0.3458,0,-0.3711,-0.3705,-0.3679,-0.3671,-0.3659,-0.3646,-0.3636,-0.3614,-0.3604,-0.3581,-0.3576,-0.3558,-0.3543,-0.3517,-0.3497,-0.3479,-0.3472,-0.3476,-0.3469,-0.3475,-0.3472,-0.3473,-0.3472,-0.3478,-0.3478,-0.3479,-0.3479,0,-0.3725,-0.3716,-0.3702,-0.3685,-0.3674,-0.3659,-0.3643,-0.3638,-0.3613,-0.3602,-0.3586,-0.3574,-0.355,-0.3533,-0.3512,-0.3498,-0.3484,-0.3481,-0.3481,-0.3487,-0.3495,-0.3491,-0.3473,-0.3481,-0.3481,-0.3481,-0.3481,-0.3481,-0.3738,-0.3732,-0.3713,-0.3698,-0.3684,-0.367,-0.3662,-0.3645,-0.3632,-0.3611,-0.3599,-0.3583,-0.3563,-0.3534,-0.3521,-0.3507,-0.3502,-0.3501,-0.3501,-0.3501,-0.3503,-0.3497,-0.3504,-0.3503,-0.3503,-0.3503,-0.3503,0,-0.3751,-0.3738,-0.3725,-0.3704,-0.3693,-0.3681,-0.3664,-0.3654,-0.3641,-0.3624,-0.3609,-0.359,-0.3573,-0.3552,-0.3533,-0.3527,-0.352,-0.3522,-0.3523,-0.352,-0.3509,-0.3511,-0.3528,-0.3528,-0.3528,-0.3528,-0.3528,-0.3528,-0.3757,-0.3746,-0.3734,-0.3716,-0.3702,-0.3687,-0.3678,-0.3665,-0.3651,-0.3631,-0.3617,-0.3604,-0.3584,-0.3564,-0.3548,-0.3542,-0.3536,-0.3541,-0.3533,-0.3523,-0.3521,-0.3518,-0.3521,-0.354,-0.354,-0.3545,-0.3545,-0.3545]}]]